NORTHEAST SUFFOLK  -  Special Weather Statement Special Weather Statement        NORTHERN NASSAU  -  Special Weather Statement Special Weather Statement        NORTHWEST SUFFOLK  -  Special Weather Statement Special Weather Statement        SOUTHEAST SUFFOLK  -  Special Weather Statement Special Weather Statement        SOUTHERN NASSAU  -  Special Weather Statement Special Weather Statement        SOUTHWEST SUFFOLK  -  Special Weather Statement Special Weather Statement      

Active alerts

Northern Nassau
  Details for Northern Nassau Special Weather Statement
Southern Nassau
  Details for Southern Nassau Special Weather Statement
Northwest Suffolk
  Details for Northwest Suffolk Special Weather Statement
Southwest Suffolk
  Details for Southwest Suffolk Special Weather Statement
Northeast Suffolk
  Details for Northeast Suffolk Special Weather Statement
Southeast Suffolk
  Details for Southeast Suffolk Special Weather Statement


WXM80 ListenWXM80 Stop

You find our weather info also at:

UK Metoffice

WeatherCloud

Weather Underground

Northeastern Weather Network

AWEKAS

Citizen Weather Observer Program (CWOP)

HAMweather, WeatherForYou, PWS Weather


Weather Underground History page Text

Daily Summary for April 1, 2017 Units:  Metric    English   Both
« Previous Day
Next Day »
Daily Weekly Monthly Yearly Custom
  High: Low: Average:
Temperature: 7.1 °C 2.8 °C 4.7 °C
Dew Point: 3.9 °C 2.3 °C 3 °C
Humidity: 97 % 76 % 89 %
Wind Speed: 35.1 km/h 0 km/h 13.5 km/h
Wind Gust: 46.3 km/h - -
Wind:- - East
Pressure: 1015.8 hPa 1002.6 hPa -
Precipitation: 0 mm    
Historical Graphs
 
 
Tabular Data for April 1, 2017
Time Temperature Dew Point Pressure Wind Wind Speed Wind Gust Humidity Rainfall Rate (Hourly)
00:02 3.1 °C 2.7 °C 1006 hPa ENE 21.6 km/h 29.6 km/h 97 % 0.25 mm
00:03 3.1 °C 2.7 °C 1006 hPa East 24.6 km/h 32.2 km/h 97 % 0.25 mm
00:08 3.1 °C 2.7 °C 1005.6 hPa ENE 25.3 km/h 33.3 km/h 97 % 0.25 mm
00:13 3.1 °C 2.7 °C 1006 hPa ENE 28 km/h 35.4 km/h 97 % 0.25 mm
00:18 3.1 °C 2.7 °C 1006 hPa NE 24 km/h 33.3 km/h 97 % 0 mm
00:23 3.2 °C 2.7 °C 1006 hPa ENE 25.7 km/h 33.3 km/h 97 % 0 mm
00:28 3.2 °C 2.7 °C 1005.6 hPa ENE 25.3 km/h 38.9 km/h 97 % 0 mm
00:33 3.2 °C 2.8 °C 1005.6 hPa East 26.7 km/h 35.2 km/h 97 % 0 mm
00:38 3.2 °C 2.8 °C 1005.3 hPa ENE 24.9 km/h 33.3 km/h 97 % 0 mm
00:43 3.2 °C 2.8 °C 1005.3 hPa ENE 26.2 km/h 37 km/h 97 % 0 mm
00:48 3.2 °C 2.8 °C 1005.3 hPa ENE 22.7 km/h 27.8 km/h 97 % 0 mm
00:53 3.2 °C 2.8 °C 1005 hPa NE 29.9 km/h 37 km/h 97 % 0 mm
00:58 3.3 °C 2.8 °C 1005 hPa ESE 26.6 km/h 37 km/h 97 % 0 mm
01:03 3.3 °C 2.8 °C 1004.6 hPa ENE 29.6 km/h 37 km/h 97 % 0.25 mm
01:08 3.3 °C 2.8 °C 1004.6 hPa ENE 29 km/h 38.6 km/h 97 % 0.25 mm
01:13 3.3 °C 2.9 °C 1004.6 hPa ENE 27.4 km/h 35.4 km/h 97 % 0.25 mm
01:18 3.3 °C 2.9 °C 1004.6 hPa ENE 27 km/h 37 km/h 97 % 0.25 mm
01:23 3.3 °C 2.9 °C 1004.6 hPa NE 31.7 km/h 46.3 km/h 97 % 0.25 mm
01:28 3.3 °C 2.9 °C 1004.6 hPa ENE 26.9 km/h 35.2 km/h 97 % 0.25 mm
01:33 3.4 °C 2.9 °C 1004.3 hPa East 30.9 km/h 41.8 km/h 97 % 0.25 mm
01:38 3.3 °C 2.9 °C 1004.3 hPa NE 30.4 km/h 38.9 km/h 97 % 0.25 mm
01:43 3.4 °C 2.9 °C 1004.3 hPa ENE 29.3 km/h 38.9 km/h 97 % 0.25 mm
01:48 3.4 °C 2.9 °C 1004.3 hPa ENE 22.5 km/h 42.6 km/h 97 % 0.25 mm
01:53 3.4 °C 3 °C 1004.3 hPa ENE 35.1 km/h 42.6 km/h 97 % 0.25 mm
01:58 3.4 °C 3 °C 1004.3 hPa NE 25.6 km/h 37 km/h 97 % 0.25 mm
02:03 3.4 °C 3 °C 1004.3 hPa ENE 26.9 km/h 33.3 km/h 97 % 0 mm
02:08 3.4 °C 3 °C 1003.9 hPa ENE 26.6 km/h 37 km/h 97 % 0 mm
02:13 3.4 °C 2.9 °C 1003.9 hPa East 28.8 km/h 35.4 km/h 97 % 0 mm
02:18 3.4 °C 2.9 °C 1003.6 hPa ENE 25.4 km/h 37 km/h 97 % 0 mm
02:23 3.3 °C 2.8 °C 1003.6 hPa ENE 25.6 km/h 42.6 km/h 96 % 0 mm
02:28 3.4 °C 2.8 °C 1003.3 hPa ENE 26.6 km/h 37 km/h 96 % 0 mm
02:34 3.4 °C 2.8 °C 1003.3 hPa East 29.1 km/h 38.9 km/h 96 % 0 mm
02:39 3.4 °C 2.8 °C 1003.3 hPa ENE 25.6 km/h 37 km/h 96 % 0 mm
02:44 3.4 °C 2.8 °C 1002.9 hPa ENE 34.3 km/h 42.6 km/h 96 % 0 mm
02:49 3.4 °C 2.9 °C 1002.9 hPa ENE 30.9 km/h 37 km/h 97 % 0 mm
02:54 3.4 °C 2.8 °C 1002.9 hPa ENE 29.3 km/h 37 km/h 96 % 0 mm
02:59 3.4 °C 2.8 °C 1002.9 hPa East 29.9 km/h 42.6 km/h 96 % 0 mm
03:04 3.4 °C 2.8 °C 1002.9 hPa ENE 25.1 km/h 31.5 km/h 96 % 0 mm
03:09 3.3 °C 2.8 °C 1002.9 hPa ENE 28.6 km/h 38.9 km/h 96 % 0 mm
03:14 3.3 °C 2.8 °C 1002.6 hPa ENE 26.7 km/h 38.9 km/h 96 % 0 mm
03:19 3.3 °C 2.7 °C 1002.6 hPa ENE 23.8 km/h 37 km/h 96 % 0 mm
03:24 3.3 °C 2.7 °C 1002.6 hPa ENE 23.5 km/h 38.9 km/h 96 % 0 mm
03:29 3.3 °C 2.7 °C 1002.6 hPa ENE 24.9 km/h 31.5 km/h 96 % 0 mm
03:34 3.3 °C 2.7 °C 1002.9 hPa East 22 km/h 35.4 km/h 96 % 0 mm
03:39 3.3 °C 2.8 °C 1002.9 hPa ENE 19.2 km/h 29 km/h 97 % 0 mm
03:44 3.3 °C 2.8 °C 1002.9 hPa ENE 19.2 km/h 27.4 km/h 97 % 0 mm
03:49 3.2 °C 2.8 °C 1002.9 hPa NE 17.1 km/h 27.8 km/h 97 % 0 mm
03:54 3.2 °C 2.8 °C 1002.9 hPa NE 13.7 km/h 25.9 km/h 97 % 0 mm
03:59 3.2 °C 2.8 °C 1002.9 hPa NNE 10.6 km/h 20.4 km/h 97 % 0.25 mm
04:04 3.2 °C 2.8 °C 1002.9 hPa ENE 11.7 km/h 18.5 km/h 97 % 0.25 mm
04:09 3.2 °C 2.7 °C 1002.6 hPa ENE 11.7 km/h 24.1 km/h 97 % 0.25 mm
04:14 3.2 °C 2.7 °C 1002.6 hPa NE 11.7 km/h 14.8 km/h 97 % 0.25 mm
04:19 3.1 °C 2.7 °C 1002.6 hPa NE 13.8 km/h 18.5 km/h 97 % 0.25 mm
04:24 3.1 °C 2.6 °C 1002.6 hPa NNE 8.4 km/h 17.7 km/h 97 % 0.25 mm
04:29 3.1 °C 2.6 °C 1002.6 hPa NE 11.4 km/h 16.7 km/h 97 % 0.25 mm
04:34 3 °C 2.6 °C 1002.9 hPa NNE 10 km/h 16.1 km/h 97 % 0.25 mm
04:39 3 °C 2.6 °C 1002.9 hPa NNE 13.8 km/h 22.2 km/h 97 % 0.25 mm
04:44 3 °C 2.6 °C 1002.9 hPa NNE 16.6 km/h 27.8 km/h 97 % 0.25 mm
04:49 2.9 °C 2.5 °C 1003.3 hPa NE 12.2 km/h 22.2 km/h 97 % 0.25 mm
04:54 2.9 °C 2.5 °C 1002.9 hPa NNE 12.9 km/h 31.5 km/h 97 % 0.25 mm
04:59 2.9 °C 2.5 °C 1003.3 hPa ENE 15.4 km/h 25.9 km/h 97 % 0 mm
05:04 2.9 °C 2.4 °C 1003.3 hPa NE 11.3 km/h 18.5 km/h 97 % 0 mm
05:09 2.9 °C 2.4 °C 1002.9 hPa NNE 14.8 km/h 25.9 km/h 97 % 0 mm
05:14 2.9 °C 2.4 °C 1003.3 hPa ENE 11.4 km/h 18.5 km/h 97 % 0 mm
05:15 2.9 °C 2.4 °C 1002.9 hPa NNE 11.6 km/h 20.9 km/h 97 % 0 mm
05:20 2.8 °C 2.4 °C 1003.3 hPa NE 13 km/h 16.7 km/h 97 % 0 mm
05:25 2.8 °C 2.4 °C 1003.3 hPa NNE 13.7 km/h 22.2 km/h 97 % 0 mm
05:30 2.8 °C 2.4 °C 1003.3 hPa NNE 13.8 km/h 20.4 km/h 97 % 0 mm
05:35 2.8 °C 2.4 °C 1003.3 hPa NE 20.1 km/h 29.6 km/h 97 % 0 mm
05:40 2.8 °C 2.4 °C 1003.3 hPa NNE 17.7 km/h 29.6 km/h 97 % 0 mm
05:45 2.8 °C 2.4 °C 1003.6 hPa NNE 17.1 km/h 25.9 km/h 97 % 0 mm
05:50 2.8 °C 2.3 °C 1003.6 hPa NE 18.3 km/h 29.6 km/h 97 % 0 mm
05:55 2.8 °C 2.3 °C 1003.6 hPa NNE 20.6 km/h 24.1 km/h 97 % 0 mm
06:00 2.8 °C 2.3 °C 1003.6 hPa NNW 21.9 km/h 30.6 km/h 97 % 0 mm
06:05 2.8 °C 2.3 °C 1003.6 hPa NNE 18.2 km/h 37 km/h 97 % 0 mm
06:10 2.8 °C 2.4 °C 1003.6 hPa NNE 20.9 km/h 25.9 km/h 97 % 0.25 mm
06:15 2.8 °C 2.4 °C 1003.9 hPa NNE 18.3 km/h 27.8 km/h 97 % 0.25 mm
06:20 2.8 °C 2.4 °C 1003.9 hPa NE 17.4 km/h 33.3 km/h 97 % 0.25 mm
06:25 2.8 °C 2.4 °C 1003.9 hPa NNE 18.7 km/h 29.6 km/h 97 % 0.25 mm
06:30 2.8 °C 2.4 °C 1003.9 hPa NNE 18 km/h 29.6 km/h 97 % 0.25 mm
06:35 2.8 °C 2.4 °C 1003.9 hPa ENE 13 km/h 25.9 km/h 97 % 0.25 mm
06:40 2.8 °C 2.4 °C 1003.9 hPa North 22.7 km/h 27.8 km/h 97 % 0.25 mm
06:45 2.8 °C 2.4 °C 1003.9 hPa NNE 16.3 km/h 22.2 km/h 97 % 0.25 mm
06:50 2.8 °C 2.4 °C 1003.9 hPa NE 20.4 km/h 29.6 km/h 97 % 0.25 mm
06:55 2.8 °C 2.4 °C 1003.9 hPa NE 18 km/h 27.8 km/h 97 % 0.25 mm
07:00 2.8 °C 2.4 °C 1004.3 hPa NNE 18 km/h 31.5 km/h 97 % 0.25 mm
07:05 2.9 °C 2.4 °C 1004.3 hPa NE 14.8 km/h 27.8 km/h 97 % 0.25 mm
07:09 2.9 °C 2.4 °C 1004.3 hPa NNE 16.9 km/h 20.9 km/h 97 % 0 mm
07:14 2.9 °C 2.4 °C 1004.3 hPa NE 17.2 km/h 25.9 km/h 97 % 0 mm
07:19 2.9 °C 2.4 °C 1004.6 hPa NNW 11.7 km/h 19.3 km/h 97 % 0 mm
07:24 2.9 °C 2.5 °C 1004.6 hPa NNE 16.1 km/h 25.9 km/h 97 % 0 mm
07:29 2.9 °C 2.4 °C 1005 hPa North 13.4 km/h 18.5 km/h 96 % 0 mm
07:34 2.9 °C 2.4 °C 1005 hPa NNE 10.9 km/h 19.3 km/h 96 % 0 mm
07:39 3 °C 2.4 °C 1005 hPa NNE 13.2 km/h 18.5 km/h 96 % 0 mm
07:44 3 °C 2.4 °C 1005 hPa NNE 16.3 km/h 22.2 km/h 96 % 0 mm
07:49 3.1 °C 2.5 °C 1005 hPa NNE 12.2 km/h 16.7 km/h 96 % 0 mm
07:54 3.1 °C 2.5 °C 1005 hPa NNE 13.4 km/h 18.5 km/h 96 % 0 mm
07:59 3.1 °C 2.6 °C 1005.3 hPa NNE 11.1 km/h 18.5 km/h 96 % 0 mm
08:04 3.1 °C 2.6 °C 1005.3 hPa NNE 17.5 km/h 24.1 km/h 96 % 0 mm
08:09 3.1 °C 2.6 °C 1005.3 hPa North 16.1 km/h 16.7 km/h 96 % 0 mm
08:14 3.1 °C 2.6 °C 1005.3 hPa NNW 12.7 km/h 20.4 km/h 96 % 0 mm
08:19 3.1 °C 2.6 °C 1005.3 hPa NE 16.4 km/h 20.4 km/h 96 % 0 mm
08:24 3.2 °C 2.6 °C 1005.3 hPa NE 15.9 km/h 24.1 km/h 96 % 0 mm
08:29 3.2 °C 2.7 °C 1005.3 hPa NNE 13.5 km/h 22.2 km/h 96 % 0 mm
08:34 3.3 °C 2.7 °C 1005.3 hPa NNE 12.9 km/h 22.2 km/h 96 % 0 mm
08:39 3.3 °C 2.7 °C 1005.3 hPa NNE 13.4 km/h 29.6 km/h 96 % 0 mm
08:44 3.3 °C 2.8 °C 1005.3 hPa North 10.8 km/h 16.7 km/h 96 % 0 mm
08:49 3.3 °C 2.8 °C 1005.3 hPa North 14.2 km/h 19.3 km/h 96 % 0 mm
08:54 3.4 °C 2.7 °C 1005.6 hPa NW 15.1 km/h 18.5 km/h 95 % 0.25 mm
08:59 3.4 °C 2.7 °C 1005.6 hPa NNW 12.9 km/h 25.9 km/h 95 % 0.25 mm
09:04 3.4 °C 2.7 °C 1005.6 hPa NNE 16.1 km/h 27.8 km/h 95 % 0.25 mm
09:09 3.6 °C 2.8 °C 1005.6 hPa NNE 17.2 km/h 20.9 km/h 95 % 0.25 mm
09:14 3.7 °C 2.8 °C 1006 hPa NNE 11.6 km/h 25.9 km/h 94 % 0.25 mm
09:19 3.7 °C 2.8 °C 1006 hPa NNE 13 km/h 18.5 km/h 94 % 0.25 mm
09:24 3.7 °C 2.8 °C 1006 hPa NNE 12.1 km/h 18.5 km/h 94 % 0.25 mm
09:29 3.8 °C 2.7 °C 1006 hPa NNE 14.2 km/h 25.9 km/h 93 % 0.25 mm
09:34 3.8 °C 2.8 °C 1006 hPa NNE 15.8 km/h 22.2 km/h 93 % 0.25 mm
09:40 3.9 °C 2.9 °C 1006.3 hPa North 9.5 km/h 18.5 km/h 93 % 0.25 mm
09:45 4 °C 2.9 °C 1006.3 hPa North 15.1 km/h 22.2 km/h 93 % 0.25 mm
09:50 4.1 °C 3 °C 1006.3 hPa NNE 13.8 km/h 24.1 km/h 93 % 0.25 mm
09:55 4.2 °C 3 °C 1006.3 hPa North 15.4 km/h 27.8 km/h 92 % 0 mm
10:00 4.2 °C 3.1 °C 1006.7 hPa NE 18.3 km/h 29.6 km/h 92 % 0 mm
10:05 4.3 °C 3.2 °C 1006.7 hPa North 15 km/h 25.9 km/h 92 % 0 mm
10:10 4.4 °C 3.1 °C 1006.7 hPa North 14.5 km/h 18.5 km/h 91 % 0 mm
10:15 4.5 °C 3.2 °C 1006.7 hPa North 15 km/h 22.2 km/h 91 % 0 mm
10:17 4.6 °C 3.2 °C 1006.7 hPa NE 11.7 km/h 25.9 km/h 91 % 0 mm
10:22 4.6 °C 3.2 °C 1006.7 hPa NNE 15.6 km/h 25.9 km/h 91 % 0 mm
10:27 4.6 °C 3.1 °C 1007 hPa NNE 13.5 km/h 25.7 km/h 90 % 0 mm
10:32 4.7 °C 3.2 °C 1007 hPa NNE 13.4 km/h 18.5 km/h 90 % 0 mm
10:37 4.8 °C 3.3 °C 1007 hPa NNW 14.8 km/h 20.9 km/h 90 % 0 mm
10:42 4.8 °C 3.3 °C 1006.7 hPa NNE 16.3 km/h 24.1 km/h 90 % 0 mm
10:47 4.9 °C 3.4 °C 1006.7 hPa NNE 16.1 km/h 25.7 km/h 90 % 0 mm
10:52 5.1 °C 3.6 °C 1007 hPa North 14.5 km/h 27.4 km/h 90 % 0 mm
10:53 5.1 °C 3.6 °C 1007 hPa NE 10.8 km/h 18.5 km/h 90 % 0 mm
10:58 5.2 °C 3.6 °C 1007 hPa NNE 17.9 km/h 25.9 km/h 89 % 0 mm
11:03 5.3 °C 3.7 °C 1007 hPa NE 17.1 km/h 25.9 km/h 89 % 0 mm
11:08 5.5 °C 3.8 °C 1007 hPa NNE 12.6 km/h 16.7 km/h 89 % 0 mm
11:13 5.6 °C 3.8 °C 1007 hPa NNE 15.9 km/h 19.3 km/h 88 % 0 mm
11:18 5.8 °C 3.9 °C 1007.3 hPa NNW 14.2 km/h 27.8 km/h 88 % 0 mm
11:23 5.8 °C 3.8 °C 1007.3 hPa NNE 12.2 km/h 18.5 km/h 87 % 0.25 mm
11:28 5.9 °C 3.9 °C 1007.3 hPa NNE 14.5 km/h 20.9 km/h 87 % 0.25 mm
11:33 5.9 °C 3.8 °C 1007.3 hPa North 11.9 km/h 22.2 km/h 86 % 0.25 mm
11:38 6 °C 3.8 °C 1007.3 hPa North 15.1 km/h 19.3 km/h 86 % 0.25 mm
11:39 6 °C 3.8 °C 1007.3 hPa North 15.4 km/h 22.2 km/h 86 % 0.25 mm
11:44 6.1 °C 3.9 °C 1007.3 hPa NNW 13.4 km/h 20.9 km/h 86 % 0.25 mm
11:49 6.1 °C 3.9 °C 1007.3 hPa NNW 13 km/h 27.8 km/h 86 % 0.25 mm
11:54 6.1 °C 3.6 °C 1007.3 hPa NNE 15.4 km/h 22.2 km/h 84 % 0.25 mm
11:59 6.2 °C 3.7 °C 1007.3 hPa North 17.1 km/h 27.8 km/h 84 % 0.25 mm
12:04 6.2 °C 3.7 °C 1007.3 hPa NE 18.2 km/h 25.9 km/h 84 % 0.25 mm
12:05 6.2 °C 3.6 °C 1007.3 hPa NNE 19.3 km/h 27.8 km/h 83 % 0.25 mm
12:10 6.2 °C 3.6 °C 1007.3 hPa North 14.3 km/h 24.1 km/h 83 % 0.25 mm
12:15 6.3 °C 3.6 °C 1007.3 hPa North 15.8 km/h 20.4 km/h 83 % 0.25 mm
12:20 6.2 °C 3.6 °C 1007.7 hPa North 14.5 km/h 20.4 km/h 83 % 0 mm
12:25 6.3 °C 3.6 °C 1007.7 hPa NE 12.2 km/h 17.7 km/h 83 % 0 mm
12:30 6.3 °C 3.6 °C 1007.7 hPa NNE 9.5 km/h 18.5 km/h 83 % 0 mm
12:35 6.2 °C 3.6 °C 1007.7 hPa NNE 14.8 km/h 29.6 km/h 83 % 0 mm
12:40 6.2 °C 3.5 °C 1007.7 hPa NNE 15.1 km/h 20.9 km/h 83 % 0 mm
12:45 6.2 °C 3.6 °C 1008 hPa North 10.3 km/h 24.1 km/h 83 % 0 mm
12:50 6.3 °C 3.4 °C 1008 hPa NNE 7.6 km/h 16.7 km/h 82 % 0 mm
12:55 6.3 °C 3.4 °C 1008 hPa NNW 11.3 km/h 24.1 km/h 82 % 0 mm
13:00 6.3 °C 3.4 °C 1008 hPa NNW 9.5 km/h 16.1 km/h 82 % 0 mm
13:05 6.3 °C 3.3 °C 1008 hPa NNW 15.9 km/h 24.1 km/h 81 % 0 mm
13:11 6.3 °C 3.3 °C 1008.4 hPa NNE 13.2 km/h 22.2 km/h 81 % 0 mm
13:16 6.3 °C 3.3 °C 1008.4 hPa NNE 9.7 km/h 16.7 km/h 81 % 0 mm
13:21 6.3 °C 3.3 °C 1008.4 hPa North 12.2 km/h 18.5 km/h 81 % 0 mm
13:26 6.4 °C 3.2 °C 1008 hPa North 12.4 km/h 20.4 km/h 80 % 0 mm
13:31 6.4 °C 3.2 °C 1008.4 hPa NNE 15.6 km/h 20.9 km/h 80 % 0 mm
13:36 6.6 °C 3.3 °C 1008.4 hPa NNE 10.1 km/h 18.5 km/h 80 % 0 mm
13:41 6.6 °C 3.2 °C 1008.4 hPa NNE 10.1 km/h 18.5 km/h 79 % 0 mm
13:46 6.6 °C 3.2 °C 1008.7 hPa North 12.4 km/h 16.7 km/h 79 % 0 mm
13:51 6.7 °C 3.3 °C 1008.4 hPa North 11.3 km/h 18.5 km/h 79 % 0 mm
13:56 6.7 °C 3.3 °C 1008.4 hPa North 14.2 km/h 20.4 km/h 79 % 0 mm
14:01 6.8 °C 3.4 °C 1008.4 hPa NNE 10.8 km/h 20.9 km/h 79 % 0 mm
14:06 6.9 °C 3.5 °C 1008.4 hPa NNE 10.8 km/h 18.5 km/h 79 % 0 mm
14:11 7 °C 3.4 °C 1008 hPa NNE 13.2 km/h 20.4 km/h 78 % 0 mm
14:16 7.1 °C 3.3 °C 1008.4 hPa NE 12.6 km/h 22.2 km/h 77 % 0 mm
14:21 7 °C 3.4 °C 1008.4 hPa North 9.5 km/h 14.8 km/h 78 % 0 mm
14:26 7 °C 3.1 °C 1008.4 hPa ENE 16.7 km/h 22.2 km/h 76 % 0.25 mm
14:31 7 °C 3.2 °C 1008.4 hPa NE 12.9 km/h 16.7 km/h 77 % 0.25 mm
14:35 7 °C 3.1 °C 1008.7 hPa NE 13.8 km/h 18.5 km/h 76 % 0.25 mm
14:40 6.9 °C 3 °C 1008.7 hPa NNE 11.4 km/h 18.5 km/h 76 % 0.25 mm
14:45 6.9 °C 3.1 °C 1008.7 hPa North 9 km/h 20.4 km/h 77 % 0.25 mm
14:51 6.8 °C 3.1 °C 1008.7 hPa NE 12.9 km/h 16.7 km/h 77 % 0.25 mm
14:56 6.8 °C 3.1 °C 1009 hPa North 7.2 km/h 13 km/h 77 % 0.25 mm
15:01 6.8 °C 2.8 °C 1009 hPa NNW 13.2 km/h 18.5 km/h 76 % 0.25 mm
15:06 6.8 °C 3 °C 1009 hPa North 8 km/h 13 km/h 77 % 0.25 mm
15:11 6.7 °C 2.9 °C 1009.4 hPa NNE 11.1 km/h 14.8 km/h 77 % 0.25 mm
15:16 6.7 °C 2.9 °C 1009.4 hPa NNE 7.7 km/h 13 km/h 77 % 0.25 mm
15:21 6.7 °C 3.1 °C 1009.4 hPa NNW 9.3 km/h 14.5 km/h 78 % 0.25 mm
15:26 6.7 °C 2.9 °C 1009.7 hPa North 6.3 km/h 16.7 km/h 77 % 0 mm
15:31 6.6 °C 3.1 °C 1009.7 hPa North 12.9 km/h 18.5 km/h 78 % 0 mm
15:36 6.6 °C 3 °C 1009.7 hPa North 11.3 km/h 18.5 km/h 78 % 0 mm
15:41 6.5 °C 2.9 °C 1009.7 hPa NE 10.5 km/h 16.7 km/h 78 % 0 mm
15:46 6.4 °C 2.9 °C 1010 hPa North 11.3 km/h 16.7 km/h 78 % 0 mm
15:51 6.5 °C 2.9 °C 1010 hPa NNE 10.6 km/h 18.5 km/h 78 % 0 mm
15:56 6.5 °C 3.1 °C 1010 hPa NNE 13.4 km/h 22.2 km/h 79 % 0 mm
16:01 6.5 °C 2.9 °C 1010 hPa NNE 15.8 km/h 25.9 km/h 78 % 0 mm
16:06 6.5 °C 3.1 °C 1010.4 hPa NNW 8.9 km/h 14.8 km/h 79 % 0 mm
16:11 6.4 °C 3.1 °C 1010.4 hPa North 11.1 km/h 18.5 km/h 79 % 0 mm
16:16 6.4 °C 3 °C 1010.4 hPa North 10.9 km/h 20.4 km/h 79 % 0 mm
16:21 6.3 °C 2.9 °C 1010.7 hPa NNE 11.3 km/h 18.5 km/h 79 % 0 mm
16:26 6.3 °C 3.1 °C 1010.4 hPa NNE 7.1 km/h 11.1 km/h 80 % 0 mm
16:31 6.3 °C 3.1 °C 1010.7 hPa North 9.2 km/h 13 km/h 80 % 0 mm
16:36 6.3 °C 3.3 °C 1010.7 hPa NNW 6 km/h 14.8 km/h 81 % 0 mm
16:41 6.3 °C 3.4 °C 1011.1 hPa NNE 7.2 km/h 9.7 km/h 82 % 0 mm
16:46 6.3 °C 3.6 °C 1011.1 hPa North 9.8 km/h 14.5 km/h 83 % 0 mm
16:51 6.2 °C 3.6 °C 1011.1 hPa North 9 km/h 13 km/h 83 % 0.25 mm
16:56 6.2 °C 3.6 °C 1011.1 hPa NE 9.7 km/h 16.7 km/h 83 % 0.25 mm
17:01 6.2 °C 3.5 °C 1011.1 hPa NNW 9.3 km/h 14.8 km/h 83 % 0.25 mm
17:06 6.2 °C 3.6 °C 1011.1 hPa North 9.5 km/h 18.5 km/h 83 % 0.25 mm
17:11 6.2 °C 3.5 °C 1011.4 hPa NE 12.2 km/h 16.7 km/h 83 % 0.25 mm
17:16 6.2 °C 3.5 °C 1011.4 hPa NNE 13.7 km/h 18.5 km/h 83 % 0.25 mm
17:21 6.1 °C 3.4 °C 1011.4 hPa NE 7.2 km/h 9.3 km/h 83 % 0.25 mm
17:26 6.1 °C 3.4 °C 1011.4 hPa North 7.1 km/h 9.3 km/h 83 % 0.25 mm
17:31 6.1 °C 3.4 °C 1011.7 hPa North 8.7 km/h 11.1 km/h 83 % 0.25 mm
17:36 6.1 °C 3.4 °C 1011.7 hPa NNW 9.2 km/h 14.8 km/h 83 % 0.25 mm
17:41 6.1 °C 3.4 °C 1012.1 hPa North 8.2 km/h 13 km/h 83 % 0.25 mm
17:46 6.1 °C 3.4 °C 1012.1 hPa North 5.8 km/h 13 km/h 83 % 0.25 mm
17:51 6.1 °C 3.4 °C 1012.1 hPa North 7.6 km/h 13 km/h 83 % 0 mm
17:57 6.1 °C 3.4 °C 1012.1 hPa NNE 6.9 km/h 14.8 km/h 83 % 0 mm
18:02 6.1 °C 3.4 °C 1012.4 hPa NNE 8.9 km/h 16.7 km/h 83 % 0 mm
18:07 6 °C 3.3 °C 1012.4 hPa NE 10.3 km/h 18.5 km/h 83 % 0 mm
18:12 6 °C 3.3 °C 1012.4 hPa NNE 7.4 km/h 13 km/h 83 % 0.25 mm
18:17 6 °C 3.3 °C 1012.8 hPa NNE 9.7 km/h 14.5 km/h 83 % 0 mm
18:22 6 °C 3.3 °C 1012.8 hPa North 4.8 km/h 14.5 km/h 83 % 0 mm
18:27 5.9 °C 3.4 °C 1013.1 hPa North 3.2 km/h 11.3 km/h 84 % 0 mm
18:32 5.9 °C 3.4 °C 1013.1 hPa North 9.7 km/h 12.9 km/h 84 % 0 mm
18:37 5.8 °C 3.3 °C 1013.1 hPa North 11.3 km/h 19.3 km/h 84 % 0 mm
18:42 5.8 °C 3.3 °C 1013.1 hPa NNE 8 km/h 20.9 km/h 84 % 0 mm
18:47 5.8 °C 3.4 °C 1013.1 hPa North 7.9 km/h 14.8 km/h 85 % 0.25 mm
18:52 5.7 °C 3.4 °C 1013.1 hPa North 9.7 km/h 14.5 km/h 85 % 0 mm
18:57 5.7 °C 3.3 °C 1013.4 hPa NNE 11.7 km/h 16.7 km/h 85 % 0.25 mm
19:03 5.6 °C 3.3 °C 1013.1 hPa North 8.9 km/h 14.8 km/h 85 % 0.51 mm
19:08 5.6 °C 3.2 °C 1013.4 hPa NNE 8.4 km/h 12.9 km/h 85 % 0.51 mm
19:13 5.6 °C 3.2 °C 1013.8 hPa NNE 6.4 km/h 13 km/h 85 % 0.25 mm
19:18 5.6 °C 3.2 °C 1013.8 hPa NNE 7.9 km/h 11.1 km/h 85 % 0.25 mm
19:23 5.6 °C 3.2 °C 1013.8 hPa NNE 7.9 km/h 13 km/h 85 % 0.25 mm
19:28 5.6 °C 3.2 °C 1013.8 hPa NNE 8 km/h 13 km/h 85 % 0.25 mm
19:33 5.6 °C 3.2 °C 1013.8 hPa North 11.3 km/h 16.7 km/h 85 % 0.25 mm
19:38 5.6 °C 3.2 °C 1014.1 hPa North 7.6 km/h 13 km/h 85 % 0.25 mm
19:43 5.6 °C 3.3 °C 1014.4 hPa NNE 8.5 km/h 13 km/h 85 % 0.25 mm
19:48 5.6 °C 3.2 °C 1014.1 hPa North 7.9 km/h 11.3 km/h 85 % 0.25 mm
19:53 5.6 °C 3.2 °C 1014.4 hPa NNE 5.8 km/h 9.3 km/h 85 % 0.25 mm
19:58 5.6 °C 3.4 °C 1014.4 hPa North 7.7 km/h 9.7 km/h 86 % 0.51 mm
20:03 5.6 °C 3.4 °C 1014.4 hPa ENE 6 km/h 11.3 km/h 86 % 0.25 mm
20:08 5.6 °C 3.4 °C 1014.4 hPa NNE 6.8 km/h 11.3 km/h 86 % 0.25 mm
20:13 5.5 °C 3.3 °C 1014.4 hPa NE 10.3 km/h 13 km/h 86 % 0.25 mm
20:18 5.5 °C 3.3 °C 1014.4 hPa NNE 9.8 km/h 16.7 km/h 86 % 0.25 mm
20:23 5.5 °C 3.3 °C 1014.4 hPa NNE 10.1 km/h 16.1 km/h 86 % 0.25 mm
20:28 5.4 °C 3.3 °C 1014.8 hPa NE 7.1 km/h 9.3 km/h 86 % 0.25 mm
20:33 5.4 °C 3.3 °C 1014.4 hPa NNE 7.4 km/h 11.3 km/h 86 % 0.51 mm
20:38 5.4 °C 3.3 °C 1014.4 hPa NNE 9.2 km/h 14.8 km/h 86 % 0.51 mm
20:43 5.4 °C 3.2 °C 1014.4 hPa North 6 km/h 9.3 km/h 86 % 0.51 mm
20:48 5.4 °C 3.2 °C 1014.4 hPa NNE 4.8 km/h 13 km/h 86 % 0.51 mm
20:53 5.3 °C 3.3 °C 1014.8 hPa NNE 3.5 km/h 9.3 km/h 87 % 0.51 mm
20:58 5.3 °C 3.3 °C 1014.8 hPa North 4.8 km/h 8 km/h 87 % 0.25 mm
21:03 5.3 °C 3.3 °C 1014.8 hPa NNE 4.2 km/h 5.6 km/h 87 % 0.25 mm
21:08 5.3 °C 3.3 °C 1014.8 hPa North 4.2 km/h 5.6 km/h 87 % 0.25 mm
21:13 5.2 °C 3.2 °C 1014.8 hPa NNE 1.4 km/h 5.6 km/h 87 % 0.25 mm
21:18 5.2 °C 3.2 °C 1014.4 hPa NNE 2.4 km/h 5.6 km/h 87 % 0.25 mm
21:23 5.2 °C 3.2 °C 1014.4 hPa North 3.1 km/h 5.6 km/h 87 % 0.25 mm
21:28 5.1 °C 3.1 °C 1014.8 hPa North 2.3 km/h 7.4 km/h 87 % 0.51 mm
21:33 5.1 °C 3.1 °C 1014.8 hPa North 3.2 km/h 5.6 km/h 87 % 0.25 mm
21:38 5.1 °C 3.1 °C 1014.8 hPa North 5.1 km/h 8 km/h 87 % 0.25 mm
21:43 5.1 °C 3.1 °C 1014.8 hPa NNE 2.4 km/h 5.6 km/h 87 % 0.25 mm
21:48 5.1 °C 3.1 °C 1015.1 hPa North 5 km/h 6.4 km/h 87 % 0.25 mm
21:53 5.1 °C 3.1 °C 1015.1 hPa NNW 3.9 km/h 5.6 km/h 87 % 0.25 mm
21:58 5.1 °C 2.9 °C 1015.1 hPa NNW 4.2 km/h 5.6 km/h 86 % 0.25 mm
22:03 5.1 °C 2.9 °C 1015.1 hPa NNW 1.9 km/h 7.4 km/h 86 % 0.25 mm
22:08 5.1 °C 2.9 °C 1015.1 hPa NNW 5.3 km/h 7.4 km/h 86 % 0.51 mm
22:13 5.1 °C 2.9 °C 1015.5 hPa NNW 1.6 km/h 5.6 km/h 86 % 0.51 mm
22:18 5.1 °C 2.9 °C 1015.5 hPa NNW 6.3 km/h 7.4 km/h 86 % 0.51 mm
22:23 5.1 °C 2.9 °C 1015.5 hPa NNE 3.1 km/h 5.6 km/h 86 % 0.51 mm
22:28 5.1 °C 2.9 °C 1015.5 hPa NNW 4.8 km/h 8 km/h 86 % 0.25 mm
22:33 5.1 °C 2.8 °C 1015.5 hPa NNE 3.7 km/h 9.3 km/h 85 % 0.25 mm
22:38 5.2 °C 2.8 °C 1015.5 hPa NE 5 km/h 9.3 km/h 85 % 0.25 mm
22:43 5.2 °C 2.8 °C 1015.5 hPa NNE 5.3 km/h 11.1 km/h 85 % 0.25 mm
22:48 5.2 °C 2.8 °C 1015.5 hPa North 3.9 km/h 9.3 km/h 85 % 0.25 mm
22:54 5.2 °C 2.9 °C 1015.5 hPa North 6.1 km/h 9.3 km/h 85 % 0.25 mm
22:59 5.2 °C 2.9 °C 1015.8 hPa North 5.3 km/h 7.4 km/h 85 % 0.25 mm
23:04 5.2 °C 2.9 °C 1015.8 hPa NNE 3.7 km/h 6.4 km/h 85 % 0.51 mm
23:09 5.3 °C 2.9 °C 1015.8 hPa North 2.4 km/h 5.6 km/h 85 % 0.25 mm
23:14 5.3 °C 2.9 °C 1015.8 hPa North 4.5 km/h 7.4 km/h 85 % 0.25 mm
23:19 5.3 °C 2.9 °C 1015.8 hPa North 3.7 km/h 5.6 km/h 85 % 0.25 mm
23:24 5.3 °C 2.9 °C 1015.8 hPa NNE 3.4 km/h 5.6 km/h 85 % 0.25 mm
23:29 5.3 °C 2.9 °C 1015.8 hPa North 2.3 km/h 5.6 km/h 85 % 0.25 mm
23:34 5.3 °C 2.9 °C 1015.8 hPa North 1.1 km/h 1.9 km/h 85 % 0.25 mm
23:39 5.3 °C 2.9 °C 1015.8 hPa North 0.2 km/h 1.6 km/h 85 % 0.25 mm
23:44 5.3 °C 2.9 °C 1015.8 hPa NNW 1.6 km/h 3.7 km/h 85 % 0.25 mm
23:49 5.2 °C 2.9 °C 1015.8 hPa NNW 1.1 km/h 1.6 km/h 85 % 0.25 mm
23:54 5.2 °C 2.9 °C 1015.8 hPa NW 0.2 km/h 3.7 km/h 85 % 0.51 mm
23:59 5.2 °C 3.1 °C 1015.8 hPa Calm   3.7 km/h 86 % 0.51 mm
Crab Meadow Weather
Compliments of Weather Underground - 3 mb

Script developed by  Jim McMurry - jmcmurry@mwt.net Adapted for the template by  Wim van der Kuil - Leuven-Template.eu

Extremes: The most widespread U.S. cold wave was in February of 1899. It was so cold that the Mississippi River froze over its entire length, with ice as thick as two inches even in New Orleans.